SQ6ELQ-11 Weather Reports


Display with metric or nautical units.
time (UTC)temp
F
wind
direction
speed
MPH
gust
MPH
rain 1hr
in
rain 24hr
in
rain mn
in
humidity
%
barometer
mb
20260506154126 66 0 0.0 0.0 0.00 0.00 0.00 34 1006.7
20260506152311 72 0 0.0 0.0 0.00 0.00 0.00 27 1006.6
20260506150516 73 0 0.0 0.0 0.00 0.00 0.00 27 1006.4
20260506144627 73 0 0.0 0.0 0.00 0.00 0.00 28 1006.5
20260506143001 73 0 0.0 0.0 0.00 0.00 0.00 27 1006.5
20260506141131 72 0 0.0 0.0 0.00 0.00 0.00 27 1006.6
20260506135350 75 0 0.0 0.0 0.00 0.00 0.00 26 1006.8
20260506133649 69 0 0.0 0.0 0.00 0.00 0.00 33 1007.1
20260506131925 68 0 0.0 0.0 0.00 0.00 0.00 34 1007.3
20260506130125 70 0 0.0 0.0 0.00 0.00 0.00 36 1007.2
20260506124518 71 0 0.0 0.0 0.00 0.00 0.00 36 1007.3
20260506122536 69 0 0.0 0.0 0.00 0.00 0.00 37 1007.5
20260506120606 67 0 0.0 0.0 0.00 0.00 0.00 40 1007.5
20260506114633 65 0 0.0 0.0 0.00 0.00 0.00 40 1007.3
20260506112820 65 0 0.0 0.0 0.00 0.00 0.00 41 1007.3
20260506111043 64 0 0.0 0.0 0.00 0.00 0.00 43 1007.4
20260506105326 63 0 0.0 0.0 0.00 0.00 0.00 44 1007.5
20260506103536 63 0 0.0 0.0 0.00 0.00 0.00 46 1007.4
20260506101744 62 0 0.0 0.0 0.00 0.00 0.00 46 1007.5
20260506100018 61 0 0.0 0.0 0.00 0.00 0.00 45 1007.4
20260506094201 61 0 0.0 0.0 0.00 0.00 0.00 47 1007.4
20260506092350 60 0 0.0 0.0 0.00 0.00 0.00 50 1007.4
20260506090450 59 0 0.0 0.0 0.00 0.00 0.00 50 1007.3
20260506084636 61 0 0.0 0.0 0.00 0.00 0.00 51 1007.2
20260506082906 59 0 0.0 0.0 0.00 0.00 0.00 52 1007.0
20260506081155 59 0 0.0 0.0 0.00 0.00 0.00 53 1006.9
20260506073511 58 0 0.0 0.0 0.00 0.00 0.00 56 1006.8
20260506071646 57 0 0.0 0.0 0.00 0.00 0.00 57 1006.6
20260506062056 56 0 0.0 0.0 0.00 0.00 0.00 59 1006.6
20260506060125 56 0 0.0 0.0 0.00 0.00 0.00 61 1006.3
20260506051013 55 0 0.0 0.0 0.00 0.00 0.00 63 1005.7
20260506043520 55 0 0.0 0.0 0.00 0.00 0.00 64 1005.6
20260506041806 55 0 0.0 0.0 0.00 0.00 0.00 63 1005.4
20260506035911 55 0 0.0 0.0 0.00 0.00 0.00 61 1005.3
20260506034103 55 0 0.0 0.0 0.00 0.00 0.00 59 1005.5
20260506032226 55 0 0.0 0.0 0.00 0.00 0.00 60 1005.4
20260506030506 54 0 0.0 0.0 0.00 0.00 0.00 61 1005.5
20260506024541 53 0 0.0 0.0 0.00 0.00 0.00 64 1005.4
20260506022901 53 0 0.0 0.0 0.00 0.00 0.00 64 1005.4
20260506021201 54 0 0.0 0.0 0.00 0.00 0.00 65 1005.6
20260506015451 54 0 0.0 0.0 0.00 0.00 0.00 64 1006.3
20260506013541 54 0 0.0 0.0 0.00 0.00 0.00 63 1006.3
20260506011831 52 0 0.0 0.0 0.00 0.00 0.00 69 1006.3
20260506010025 52 0 0.0 0.0 0.00 0.00 0.00 66 1006.2
20260506004236 52 0 0.0 0.0 0.00 0.00 0.00 66 1006.2
20260506002311 52 0 0.0 0.0 0.00 0.00 0.00 66 1006.1
20260506000541 53 0 0.0 0.0 0.00 0.00 0.00 68 1006.4
20260505234848 53 0 0.0 0.0 0.00 0.00 0.00 66 1006.7
20260505233201 53 0 0.0 0.0 0.00 0.00 0.00 66 1006.8
20260505231321 53 0 0.0 0.0 0.00 0.00 0.00 67 1006.5
20260505225515 53 0 0.0 0.0 0.00 0.00 0.00 66 1006.6
20260505223721 54 0 0.0 0.0 0.00 0.00 0.00 66 1006.7
20260505222030 54 0 0.0 0.0 0.00 0.00 0.00 66 1006.9
20260505220211 54 0 0.0 0.0 0.00 0.00 0.00 65 1007.1
20260505214436 54 0 0.0 0.0 0.00 0.00 0.00 63 1007.2
20260505212653 55 0 0.0 0.0 0.00 0.00 0.00 63 1007.3
20260505211021 55 0 0.0 0.0 0.00 0.00 0.00 64 1007.4
20260505205207 57 0 0.0 0.0 0.00 0.00 0.00 62 1007.7
20260505203306 57 0 0.0 0.0 0.00 0.00 0.00 61 1007.6
20260505201431 58 0 0.0 0.0 0.00 0.00 0.00 59 1007.6
20260505195801 58 0 0.0 0.0 0.00 0.00 0.00 59 1007.6
20260505193941 59 0 0.0 0.0 0.00 0.00 0.00 59 1007.5
20260505192151 59 0 0.0 0.0 0.00 0.00 0.00 58 1007.6
20260505190426 59 0 0.0 0.0 0.00 0.00 0.00 57 1007.7
20260505184705 60 0 0.0 0.0 0.00 0.00 0.00 57 1007.6
20260505183015 61 0 0.0 0.0 0.00 0.00 0.00 54 1007.7
20260505181316 62 0 0.0 0.0 0.00 0.00 0.00 53 1007.7
20260505175551 62 0 0.0 0.0 0.00 0.00 0.00 52 1007.8
20260505173645 64 0 0.0 0.0 0.00 0.00 0.00 52 1008.0
20260505171813 65 0 0.0 0.0 0.00 0.00 0.00 50 1007.7
20260505165921 66 0 0.0 0.0 0.00 0.00 0.00 44 1007.5
20260505164010 71 0 0.0 0.0 0.00 0.00 0.00 30 1007.1
20260505162351 72 0 0.0 0.0 0.00 0.00 0.00 30 1007.1
20260505160550 73 0 0.0 0.0 0.00 0.00 0.00 29 1007.2